COSMOS 1275 DEB, 13022

Orbit data source: Space-Track

COSMOS 1275 DEB, 13022 is space debris in LEO originally from a launch on Thu, 04 Jun 1981 UTC launched from the Plesetsk Missile And Space Complex (PKMTR). Debris objects in space refer to the collection of defunct objects orbiting the Earth. Examples of debris include non-operational satellites, rocket bodies, and fragments generated from explosions, collisions, or faulty payload assembly.

Loading next visibility...
Identifier
13022, 1981-053EU
Orbit
LEO
Country
Flag of CISCIS
Related business
Manufacturer
Unknown
Mission
Spacecraft
Bus & Motor
Unknown
Mass
Unknown
Launch date (UTC)
1981-06-04 (45 years ago)
Launch vehicle
Unknown
Launch site
Plesetsk Missile And Space Complex (PKMTR)
Object type
Payload
Rocket body
Debris
Shape & HBR
Unknown shape, 0.1 m
Radar Cross Section
Medium (>0.1 m² and <1 m²)

Expand to show TLE details & history
Last TLE update: 3 days ago

TLE from 3 days ago
0 COSMOS 1275 DEB
1 13022U 81053EU  26170.70064927  .00000643  00000-0  28985-3 0  9994
2 13022  82.9151 259.9166 0042603 359.0810 152.3423 14.20373910285808
Epoch: 2026-06-19T16:48Z
TLE epoch observation values (Epoch: 2026-06-19T16:48:56.096Z)
Latitude
28.15814°
Longitude
-84.03735°
Altitude
854.809 km
Speed
7.414 km/s
True Right ascension
05h 04m 29s
True Declination
28° 01' 02"
Sunlit
Object was in daylight at epoch
Visualization orbit readout
Latitude
Unknown
Longitude
Unknown
Altitude
Unknown
Speed
Unknown
Apparent Right ascension
Unknown
Apparent Declination
Unknown
Sunlit
N/A
Visualization observer readout
Local Sidereal Time
23:27:16
Azimuth
Unknown
Elevation
Unknown
Doppler factor
Unknown
Orbital elements
Apogee altitude
851.847 km
Perigee altitude
790.505 km
Semi-major axis
7,199.313 km
Eccentricity
0.00426
Inclination
82.9151°
RAAN
259.9166°
Arg. of periapsis
359.081°
True anomaly
152.56785°
Mean anomaly
152.3423°
Eccentric anomaly
152.45518°
Mean motion
3.55309 °/min
Orbital period
101.32 mins
BSTAR
0.00028985
Loading maneuver chart data...
Computing Atmospheric mass density...

Documentation

Showing up to 5 results
|